Regional Weather Roundup
Issued by NWS Grand Forks, ND

Home | Current Version | Previous Version | Text Only | Print | Product List | Glossary Off
Versions: 1 2 3 4 5 6 7 8 9 10 11 12 13 14 15 16 17 18 19 20 21 22 23 24 25 26 27 28 29 30 31 32 33 34 35 36 37 38 39 40 41 42 43 44 45 46 47 48 49 50

000
ASUS43 KFGF 130910
RWRFGF
PRAIRIE TO PINES  WEATHER ROUNDUP
NATIONAL WEATHER SERVICE EASTERN NORTH DAKOTA/GRAND FORKS ND
300 AM CST WED DEC 13 2017

 **SATELLITE DATA USED TO AUGMENT SKY COVER AT AUTOMATED STATIONS**
 *****  WEATHER ACROSS EASTERN NORTH DAKOTA  *****

CITY           SKY/WX    TMP DP  RH WIND       PRES   REMARKS
GRAND FORKS    FAIR      31  27  85 N26G45    29.51R WCI  17
GRAND FRKS AFB CLOUDY    33  28  82 N23G32    29.52R WCI  21
GRAND FRKS NWS   N/A     30 N/A N/A N26         N/A  WCI  16
DEVILS LAKE    MOCLDY    34  31  88 NW18      29.58R WCI  23
FARGO          LGT RAIN  36  34  92 NW15      29.45R
WAHPETON ARPT  CLOUDY    37  30  75 NW22G30   29.43R
$$

 ***** WEATHER ACROSS CENTRAL AND WESTERN NORTH DAKOTA  *****

CITY           SKY/WX    TMP DP  RH WIND       PRES   REMARKS
BISMARCK       FAIR      43  30  60 NW26G40   29.71R
MINOT          FAIR      37  29  72 W26G37    29.70R
JAMESTOWN      CLOUDY    37  35  92 NW22G33   29.56R
MINOT AFB      FAIR      36  29  76 NW23G31   29.69R
GARRISON         N/A     36  29  75 NW26G35   29.72R
WILLISTON      FAIR      37  28  70 NW22      29.90R
DICKINSON      FAIR      37  25  61 NW22G31   29.82R
HETTINGER      FAIR      39  23  52 NW26G37   29.85R
$$

 *****  OTHER AIRPORT OBSERVATIONS IN OUR AREA  *****

CITY           SKY/WX    TMP DP  RH WIND       PRES   REMARKS
WALHALLA       MIX PCPN  28  28 100 N16G28    29.58R WCI  17
GRAFTON AIRPOR CLOUDY    25  25 100 N22       29.55R WCI  10
VALLEY CITY AR FLURRIES  34  34 100 NW24G30   29.54R WCI  21
CANDO          FAIR      34  34 100 NW23G32   29.60R WCI  22
CAVALIER APRT  MIX PCPN  23  23 100 NW20G30   29.56R WCI   8
GWINNER          N/A     37  34  87 NW25G32   29.49R
SHEYENNE NWR     N/A     37  35  92 N16       29.95S
ROLLA          FAIR      32  30  93 NW23G31   29.60R WCI  19
 ***** THE ABOVE OBSERVATIONS ARE NON NWS ARE NOT QUALITY
       CONTROLLED AND MAY MIS-REPORT RAIN FOR SNOW...
$$

  *****  WEATHER ACROSS NORTHERN MINNESOTA  *****

CITY           SKY/WX    TMP DP  RH WIND       PRES   REMARKS
FLAG ISLAND    CLOUDY    14  10  85 E5        29.48R WCI   6
WARROAD        CLOUDY    16  12  86 E9        29.48R WCI   4
ROSEAU         CLOUDY    18  12  79 NE10      29.47R WCI   6
HALLOCK        CLOUDY    25  21  86 N14       29.53R WCI  13
THF RVR FALLS  FAIR      26  23  88 N13       29.45R WCI  15
BAUDETTE       CLOUDY    15  13  91 E10       29.44F WCI   2
WASKISH        CLOUDY    18  16  93 E7        29.43S WCI   8
CROOKSTON      FAIR      32  30  93 N36       29.46R WCI  16
STEPHEN NDAWN    N/A     25  21  86 N14         N/A  WCI  13
GREENBUSH NDAW   N/A     19  16  86 VRB10       N/A  WCI   8
$$
  *****  WEATHER ACROSS CENTRAL AND WEST MINNESOTA  *****

CITY           SKY/WX    TMP DP  RH WIND       PRES   REMARKS
FOSSTON        CLOUDY    30  30 100 NW10      29.39R WCI  21
BEMIDJI        FLURRIES  21  19  93 E6        29.38F WCI  14
PARK RAPIDS    CLOUDY    23  19  85 CALM      29.38R
ELBOW LAKE     FAIR      32  27  81 NW15      29.39R WCI  22
WADENA         CLOUDY    23  23 100 CALM      29.37R
DETROIT LAKES  MIX PCPN  30  28  93 NW10      29.39R WCI  21
MOORHEAD       RAIN      34  30  86 NW18      29.45R WCI  23
FERGUS FALLS   CLOUDY    34  28  80 NW20      29.42R WCI  22
MORRIS MN      FAIR      39  27  60 NW20      29.37R
STAPLES        CLOUDY    21  19  93 SE5       29.34F WCI  15
$$
  *****  WEATHER ELSEWHERE ACROSS MINNESOTA  *****

CITY           SKY/WX    TMP DP  RH WIND       PRES   REMARKS
DULUTH         LGT SNOW  15  14  95 E12       29.46F VSB 1   WCI   2
INTRNTL FALLS  LGT SNOW  15  11  83 E8        29.49R VSB 3/4 WCI   4
ELY            LGT SNOW  16  12  86 SE8       29.48F WCI   5
CLOQUET        LGT SNOW  14  10  85 E6        29.45S WCI   5
WHEATON        FAIR      41  25  52 W18G26    29.43R
BRAINERD       CLOUDY    22  19  89 SE6       29.37F WCI  14
HIBBING        CLOUDY    14  13  95 E8        29.46S WCI   3
ALEXANDRIA     FAIR      30  26  85 CALM      29.34F
SAINT CLOUD    FAIR      23  21  92 CALM      29.39F
MINNEAPOLIS    CLOUDY    29  26  89 SE8       29.41F WCI  21
$$

  *****  WEATHER ACROSS SOUTH DAKOTA  *****

CITY           SKY/WX    TMP DP  RH WIND       PRES   REMARKS
SIOUX FALLS    FAIR      44  26  49 W16G24    29.52R
BROOKINGS      FAIR      42  25  50 W22       29.47S
WATERTOWN      FAIR      41  25  53 NW25G35   29.46R
HURON          CLOUDY    49  27  42 NW31G43   29.58R
SISSETON         N/A     43  28  55 NW33G43   29.43R
ABERDEEN       CLOUDY    43  33  68 NW30G38   29.58R
MITCHELL       LGT RAIN  51  25  36 NW29G39   29.62R
PIERRE         FAIR      51  27  39 NW33G45   29.73R
MOBRIDGE       FAIR      46  29  51 NW22G40   29.68R
RAPID CITY     FAIR      48  17  29 NW31G51   29.92R
$$

  *****  SOME WEATHER IN NEARBY STATES *****

CITY           SKY/WX    TMP DP  RH WIND       PRES   REMARKS
GLASGOW MT     FAIR      35  23  61 NW12G21   30.04R
GREAT FALLS MT FAIR      29  12  49 S6        30.25R WCI  23
CHEYENNE WY    FAIR      42   4  20 NW12      30.07S
SCOTTSBLUFF NE FAIR      40  15  36 W12       30.04R
OMAHA NE       FAIR      30  22  72 S6        29.64F WCI  24
DES MOINES IA  FAIR      34  24  67 S14       29.60F WCI  25
DAVENPORT IA   FAIR      26  14  60 S12       29.74F WCI  16
CHICAGO IL     CLOUDY    22  11  62 S9        29.80F WCI  12
EAU CLAIRE WI  CLOUDY    20  14  77 E9        29.52F WCI   9
LA CROSSE WI   MOCLDY    28  19  69 S14       29.55F WCI  17
$$

  *****  SOME NATIONAL WEATHER *****

CITY           SKY/WX    TMP DP  RH WIND       PRES   REMARKS
LA GUARDIA NY  FAIR      24   4  42 W22G35    29.50F WCI   9
RALEIGH NC     FAIR      24  10  55 SW5       29.89R WCI  18
ATLANTA GA     FAIR      31  13  47 NW12G22   30.03R WCI  22
NEW ORLEANS LA FAIR      47  36  65 NE3       30.17R
OKLAHOMA CITY  FAIR      34  25  69 S10       29.97F
ALBUQUERQUE NM FAIR      31   3  30 SE5       30.24F
SALT LAKE CITY FOG       24  23  96 W3        30.38F VSB 1/2
LOS ANGELES CA FAIR      61  20  20 CALM      30.01F
BOISE ID       CLOUDY    22  20  92 CALM      30.48F
SEATTLE WA     CLOUDY    42  35  76 NE6       30.42F
$$

*** WEATHER ACROSS MANITOBA...SASKATCHEWAN AND ONTARIO ***
                ***ONTARIO***

CITY           SKY/WX    TMP DP  RH WIND       PRES   REMARKS
GERALDTON      PTCLDY   -17 -22  76 CALM      29.77F
THUNDER BAY    FLURRIES  10   9  92 NE7       29.68F WCI   0
SIOUX LOOKOUT  FLURRIES   5   0  78 E6        29.59R WCI  -6
TORONTO        PTCLDY    10   3  72 NW17      29.65R WCI  -7
BIG TROUT LK   CLEAR    -26 -33  68 E2        29.82S
PICKLE LAKE    NOT AVBL
DRYDEN         FLURRIES   9   5  85 E7        29.52S WCI  -3
KENORA         LGT SNOW  10   9  92 NE6       29.50R DRFTSNOWWCI   1
$$
                *** MANITOBA***

CITY           SKY/WX    TMP DP  RH WIND       PRES   REMARKS
BRANDON        CLOUDY    34  28  80 NW17G23   29.64R WCI  23
DAUPHIN        CLOUDY    30  27  86 N16G26    29.70R WCI  19
ISLAND LAKE    FLURRIES   1  -4  78 E7        29.74R WCI -11
PILOT MOUND      N/A     30  27  86 N15G21      N/A  WCI  19
THE PAS        CLOUDY    21  18  86 NW15G23   29.78R WCI   8
THOMPSON       LGT SNOW   5   0  78 NE9       29.80R FOG     WCI  -9
WINNIPEG       LGT SNOW  19  18  93 NW12      29.59R FOG     WCI   7
LYNN LAKE      FLURRIES   5   3  92 N5        29.81R WCI  -4
CHURCHILL      MOCLDY   -18 -24  76 W7        29.96R WCI -35
GILLAM         CLEAR    -18 -24  76 E3        29.89R
$$
                ***SASKATCHEWAN***

CITY           SKY/WX    TMP DP  RH WIND       PRES   REMARKS
ESTEVAN        PTCLDY    34  28  80 NW20G26   29.82R WCI  22
KINDERSLEY     PTCLDY    28  25  86 NW7       30.08S WCI  21
LLOYDMINSTER   CLOUDY    28  25  86 W12       30.06R WCI  18
PRINCE ALBERT  MOCLDY    32  27  80 W7        29.93R
REGINA         NOT AVBL
YORKTON        CLOUDY    34  30  86 NW23G30   29.75R WCI  22
N. BATTLEFORD  CLEAR     30  25  80 W13       30.05R WCI  20
LA RONGE       FLURRIES  32  28  86 W13G20    29.86R WCI  22
SASKATOON      MOCLDY    30  27  86 NW13      30.00R WCI  20
SWIFT CURRENT  CLEAR     30  25  80 W13G18    30.04R WCI  20
$$
NOTE: THESE ARE AUTOMATED STATIONS WITH LIMITED QUALITY CONTROL
      "FAIR" INDICATES FEW OR NO CLOUDS BELOW 12,000 FEET WITH NO
      SIGNIFICANT WEATHER AND/OR OBSTRUCTIONS TO VISIBILITY.
      SKY/WX - SKY CONDITION AND SIGNIFICANT WEATHER.
      TMP - AIR TEMPERATURE.    DP   - DEWPOINT TEMPERATURE.
      RH  - RELATIVE HUMIDITY.  PRES - PRESSURE.
      HX  - HEAT INDEX.         WCI  - WIND CHILL INDEX.
$




USA.gov is the U.S. government's official web portal to all federal, state and local government web resources and services.